Regional Weather Roundup
Issued by NWS

Home | Current Version | Previous Version | Graphics & Text | Print | Product List | Glossary On
Versions: 1 2 3 4 5 6 7 8 9 10 11 12 13 14 15 16 17 18 19 20 21 22 23 24 25 26 27 28 29 30 31 32 33 34 35 36 37 38 39 40 41 42 43 44 45 46 47 48 49 50
000
ASUS43 KBIS 240702
RWRND

NORTH DAKOTA REGIONAL WEATHER ROUNDUP
NATIONAL WEATHER SERVICE BISMARCK ND
100 AM CST FRI FEB 24 2017

NOTE: "FAIR" INDICATES FEW OR NO CLOUDS BELOW 12,000 FEET WITH NO
SIGNIFICANT WEATHER AND/OR OBSTRUCTIONS TO VISIBILITY.


NDZ001>003-009>011-017-240800-
NORTHWEST NORTH DAKOTA

CITY           SKY/WX    TMP DP  RH WIND       PRES   REMARKS
WILLISTON      FAIR       8   5  87 CALM      30.16S
MINOT            N/A     20  15  81 SW8       30.13R WCI  10
$$

NDZ018>021-031>035-040>046-240800-
SOUTHWEST NORTH DAKOTA

CITY           SKY/WX    TMP DP  RH WIND       PRES   REMARKS
BISMARCK       FAIR      18  12  77 N6        30.16R WCI  10
DICKINSON      FAIR      11   6  81 N6        30.09S WCI   1
GARRISON         N/A     10   7  87 NW8       30.14R WCI  -2
HETTINGER ARPT CLEAR     16  11  80 NE8       30.10R WCI   5
$$

NDZ004>008-012>016-024-026-027-054-240800-
NORTHEAST NORTH DAKOTA

CITY           SKY/WX    TMP DP  RH WIND       PRES   REMARKS
GRAND FORKS    CLEAR     18  10  71 N3        30.16R
GRND FRKS AFB  CLEAR     15  12  90 N3        30.16R
DEVILS LAKE    FAIR      15  12  88 W6        30.13R WCI   6
$$

NDZ022-023-025-028>030-036>039-047>053-240800-
SOUTHEAST NORTH DAKOTA

CITY           SKY/WX    TMP DP  RH WIND       PRES   REMARKS
FARGO          PTCLDY    21  12  68 N18       30.11S WCI   6
JAMESTOWN      FAIR      19  16  88 N7        30.11R WCI  10
$$





USA.gov is the U.S. government's official web portal to all federal, state and local government web resources and services.